Location: Glenbow
(51.1592°N, 114.3828°W)
Time: 05:36:24
(UTC+00:00)

Envisat - Visible Passes

Search period start: 30 November 2021 00:00
Search period end: 10 December 2021 00:00
Orbit: 764 x 766 km, 98.2° (Epoch: 29 November)

Date Brightness Start Highest point End Pass type
(mag) Time Alt. Az. Time Alt. Az. Time Alt. Az.
30 Nov 5.8 01:00:14 10° SW 01:03:53 20° W 01:07:33 10° NW visible
30 Nov 5.7 11:24:00 10° NE 11:27:14 17° E 11:30:26 10° SE visible
30 Nov 2.9 13:01:47 10° NNE 13:06:54 81° WNW 13:11:58 10° SSW visible
01 Dec 4.7 00:21:58 10° SSW 00:26:40 38° W 00:31:25 10° NNW visible
01 Dec 3.8 12:24:59 10° NNE 12:29:58 52° E 12:34:55 10° S visible
01 Dec 3.8 14:04:27 10° N 14:08:45 28° WNW 14:13:01 10° WSW visible
02 Dec 6.2 01:27:39 10° WSW 01:29:34 12° W 01:31:30 10° WNW visible
02 Dec 5.0 11:48:34 10° NE 11:52:51 26° E 11:57:06 10° SSE visible
02 Dec 3.1 13:27:12 10° N 13:32:08 51° WNW 13:37:03 10° SW visible
03 Dec 5.5 00:48:08 10° SW 00:52:12 24° W 00:56:18 10° NW visible
03 Dec 5.9 11:13:02 10° NE 11:15:30 13° E 11:17:58 10° ESE visible
03 Dec 3.0 12:50:13 10° NNE 12:55:21 83° ESE 13:00:26 10° SSW visible
03 Dec 4.3 14:30:16 10° NNW 14:33:46 19° NW 14:37:15 10° W visible
04 Dec 4.3 00:10:10 10° S 00:15:03 46° W 00:19:57 10° NNW visible
04 Dec 4.2 12:13:31 10° NNE 12:18:21 42° E 12:23:10 10° SSE visible
04 Dec 3.6 13:52:45 10° N 13:57:17 33° WNW 14:01:48 10° SW visible
05 Dec 6.0 01:14:58 10° WSW 01:17:50 15° W 01:20:43 10° NW visible
05 Dec 5.3 11:37:16 10° NE 11:41:10 22° E 11:45:03 10° SE visible
05 Dec 2.9 13:15:35 10° N 13:20:37 63° WNW 13:25:38 10° SSW visible
06 Dec 5.2 00:36:08 10° SSW 00:40:32 29° W 00:44:58 10° NNW visible
06 Dec 6.1 11:02:39 10° ENE 11:03:46 11° E 11:04:52 10° E visible
06 Dec 3.3 12:38:40 10° NNE 12:43:46 68° ESE 12:48:49 10° S visible
06 Dec 4.1 14:18:28 10° N 14:22:21 22° WNW 14:26:13 10° WSW visible
07 Dec 4.5 12:02:05 10° NNE 12:06:43 34° E 12:11:19 10° SSE visible
07 Dec 3.4 13:41:04 10° N 13:45:48 40° WNW 13:50:31 10° SW visible
08 Dec 5.8 01:02:38 10° SW 01:06:07 18° W 01:09:39 10° NW visible
08 Dec 5.6 11:26:03 10° NE 11:29:28 18° E 11:32:52 10° SE visible
08 Dec 2.8 13:03:59 10° NNE 13:09:05 77° WNW 13:14:09 10° SSW visible
08 Dec 4.5 14:44:27 10° NNW 14:47:19 15° NW 14:50:11 10° W visible
09 Dec 4.8 00:24:14 10° SSW 00:28:53 36° W 00:33:34 10° NNW visible
09 Dec 3.6 12:27:09 10° NNE 12:32:10 55° E 12:37:09 10° S visible
09 Dec 3.9 14:06:42 10° N 14:10:54 27° WNW 14:15:05 10° WSW visible
